CWLEESTJE Weather Reports


Display with metric or nautical units.
time (UTC)temp
F
wind
direction
speed
MPH
gust
MPH
rain 1hr
in
rain 24hr
in
rain mn
in
humidity
%
barometer
mb
20260503041551 59 179 3.0 6.0 0.00 0.35 0.00 90
20260503040544 59 181 5.0 7.0 0.00 0.35 0.00 90
20260503035535 59 168 3.0 6.0 0.00 0.35 0.00 90
20260503034519 59 159 3.0 6.0 0.00 0.35 0.00 90
20260503033523 59 162 4.0 5.0 0.00 0.35 0.00 90
20260503032553 59 163 4.0 6.0 0.00 0.35 0.00 90
20260503031524 59 158 5.0 6.0 0.00 0.35 0.00 90
20260503030528 59 167 2.0 6.0 0.00 0.35 0.00 89
20260503025523 59 167 4.0 7.0 0.00 0.75 0.00 89
20260503024526 59 183 4.0 8.0 0.00 0.75 0.00 89
20260503023538 59 156 4.0 8.0 0.00 0.75 0.00 90
20260503022523 59 153 5.0 8.0 0.00 0.75 0.00 90
20260503021533 59 162 3.0 7.0 0.00 0.75 0.00 90
20260503020537 59 165 4.0 7.0 0.00 0.75 0.00 90
20260503015521 59 168 3.0 6.0 0.00 0.91 0.00 90
20260503014534 59 178 4.0 8.0 0.00 0.91 0.00 90
20260503013547 59 156 5.0 7.0 0.00 0.91 0.00 89
20260503012530 59 154 4.0 6.0 0.00 0.91 0.00 89
20260503011543 60 148 4.0 7.0 0.00 0.91 0.00 89
20260503010527 60 157 5.0 7.0 0.00 0.91 0.00 89
20260503005535 60 174 4.0 7.0 0.00 0.91 0.00 89
20260503004520 60 171 3.0 6.0 0.00 0.91 0.00 89
20260503003553 60 159 5.0 8.0 0.00 0.91 0.00 89
20260503002536 60 171 6.0 9.0 0.00 0.91 0.00 90
20260503001528 60 185 5.0 9.0 0.00 0.91 0.00 90
20260503000533 60 194 7.0 9.0 0.00 0.91 0.00 90
20260502235545 60 188 7.0 10.0 0.00 0.91 0.00 90
20260502234525 60 179 9.0 13.0 0.00 0.91 0.00 91
20260502233538 59 155 5.0 8.0 0.00 0.91 0.00 91
20260502232522 59 159 4.0 6.0 0.00 0.91 0.00 91
20260502231526 59 158 1.0 4.0 0.00 0.91 0.00 91
20260502230519 59 159 1.0 5.0 0.00 0.91 0.00 91
20260502225552 59 158 1.0 5.0 0.00 0.91 0.00 91
20260502224534 59 157 2.0 6.0 0.00 0.91 0.00 90
20260502223518 59 135 5.0 7.0 0.00 0.91 0.00 90
20260502222527 59 131 5.0 7.0 0.00 0.91 0.00 90
20260502221540 59 134 4.0 7.0 0.00 0.91 0.00 90
20260502220543 59 137 3.0 5.0 0.00 0.91 0.00 90
20260502215535 59 137 3.0 6.0 0.00 0.91 0.18 90
20260502214519 58 133 5.0 6.0 0.00 0.91 0.18 89
20260502213532 58 128 3.0 5.0 0.00 0.91 0.18 89
20260502212600 59 128 2.0 3.0 0.00 0.91 0.18 89
20260502211523 59 127 0.0 2.0 0.00 0.91 0.18 89
20260502210527 59 128 2.0 2.0 0.00 0.91 0.18 89
20260502205519 59 128 3.0 4.0 0.00 0.91 0.18 89
20260502204549 59 127 4.0 6.0 0.00 0.91 0.18 89
20260502203529 59 123 3.0 6.0 0.00 0.91 0.18 88
20260502202543 59 113 4.0 6.0 0.00 0.91 0.18 88
20260502201522 60 109 3.0 6.0 0.00 0.91 0.18 88
20260502200555 60 105 3.0 5.0 0.00 0.91 0.18 88
20260502195527 60 105 6.0 7.0 0.00 0.91 0.18 88
20260502194531 60 119 5.0 7.0 0.00 0.91 0.18 88
20260502193543 60 113 5.0 6.0 0.00 0.91 0.18 88
20260502192526 61 111 6.0 7.0 0.00 0.91 0.18 88
20260502191538 61 111 5.0 8.0 0.04 0.91 0.18 88
20260502190517 62 117 7.0 8.0 0.04 0.91 0.18 88
20260502185531 62 115 5.0 9.0 0.12 0.91 0.18 88
20260502184544 63 115 5.0 13.0 0.24 0.91 0.18 87
20260502183528 63 115 9.0 13.0 0.28 0.91 0.18 87
20260502182541 63 175 1.0 5.0 0.35 0.91 0.18 86
20260502181525 63 175 3.0 5.0 0.31 0.87 0.17 85
20260502180529 64 192 2.0 13.0 0.31 0.87 0.17 83
20260502163518 73 259 4.0 8.0 0.00 0.55 0.11 62
20260502162522 73 159 2.0 8.0 0.00 0.55 0.11 66
20260502161536 73 360 6.0 9.0 0.00 0.55 0.11 64
20260502160520 73 211 7.0 11.0 0.00 0.55 0.11 64
20260502151541 74 171 7.0 12.0 0.00 0.55 0.11 64
20260502150546 73 131 7.0 10.0 0.00 0.55 0.11 63
20260502130529 73 252 4.0 10.0 0.00 0.55 0.11 66
20260502123525 72 172 2.0 9.0 0.00 0.55 0.11 68
20260502122519 71 189 4.0 8.0 0.00 0.55 0.11 69
20260502121523 71 171 1.0 8.0 0.00 0.55 0.11 70
20260502120535 70 142 6.0 9.0 0.00 0.55 0.11 72
20260502115606 70 116 6.0 10.0 0.00 0.55 0.11 72
20260502114523 69 136 6.0 11.0 0.00 0.55 0.11 73
20260502113537 69 129 7.0 9.0 0.00 0.55 0.11 73
20260502112520 69 180 5.0 10.0 0.00 0.55 0.11 73
20260502111524 69 105 5.0 8.0 0.00 0.55 0.11 75
20260502110537 68 81 6.0 10.0 0.00 0.55 0.11 75
20260502105550 68 155 3.0 7.0 0.00 0.55 0.11 79
20260502104532 67 171 6.0 9.0 0.00 0.55 0.11 76
20260502103527 66 187 5.0 9.0 0.00 0.55 0.11 76
20260502102526 66 190 2.0 10.0 0.00 0.55 0.11 79
20260502101539 66 144 4.0 9.0 0.00 0.55 0.11 82
20260502100523 65 241 5.0 9.0 0.00 0.55 0.11 83
20260502091523 62 172 7.0 10.0 0.00 0.55 0.11 87
20260502090527 62 200 7.0 10.0 0.00 0.55 0.11 88
20260502070521 59 255 8.0 11.0 0.00 0.55 0.11 92
20260502065534 59 257 8.0 11.0 0.00 0.55 0.11 92
20260502064534 59 239 7.0 10.0 0.00 0.55 0.11 92
20260502063547 58 255 5.0 7.0 0.00 0.55 0.11 92
20260502062539 58 256 6.0 7.0 0.00 0.55 0.11 92
20260502061524 57 256 3.0 6.0 0.00 0.55 0.11 92
20260502060538 57 257 3.0 6.0 0.00 0.55 0.11 92
20260502055521 57 257 2.0 5.0 0.00 0.55 0.11 92
20260502054526 57 257 2.0 3.0 0.00 0.55 0.11 92
20260502053519 56 256 2.0 5.0 0.00 0.55 0.11 92
20260502052519 56 257 4.0 5.0 0.00 0.55 0.11 92
20260502051533 55 257 3.0 3.0 0.00 0.55 0.11 92
20260502050537 55 257 1.0 2.0 0.00 0.55 0.11 91
20260502045530 54 257 1.0 4.0 0.00 0.55 0.11 91
20260502044535 54 257 2.0 3.0 0.00 0.55 0.11 91
20260502043517 55 257 0.0 0.0 0.00 0.55 0.11 91
20260502042530 55 257 0.0 0.0 0.00 0.55 0.11 90